SCP
0 0 0 0 0 0 0 0 -0 0 0 0 0 0 0 0 0 0 0 0 0 0 0 0 0 0 0 0 0 0 0 0 0 0 5 4 4 3 3 4 3 3 3 2
0 0 0 0 0 0 0 0 0 0 0 0 0 0 0 0 0 0 0 0 0 0 0 0 0 0 0 0 0 0 0 0 0 0 0 3 3 3 4 3 2 1 3 4
0 0 0 -0 -0 0 0 0 0 0 0 0 0 0 0 0 0 0 0 0 0 0 0 0 0 0 0 0 0 0 0 0 0 0 0 0 0 1 3 2 2 2 4 4
0 0 0 0 0 0 0 0 0 0 0 0 0 0 0 0 0 0 0 0 0 0 0 0 0 0 0 0 0 0 0 0 0 0 0 0 1 1 0 0 1 2 2 1
0 0 0 0 0 0 0 0 0 0 0 0 0 0 0 0 0 0 0 0 0 0 0 0 0 0 0 0 0 0 0 0 0 0 0 0 0 0 0 0 0 0 1 0
0 -0 0 0 0 0 0 0 0 0 0 0 0 0 0 -0 -0 -0 0 0 0 0 0 0 0 0 0 0 0 0 0 0 0 0 0 0 0 0 0 0 0 0 0 0
0 0 0 0 0 0 0 0 0 0 0 0 0 0 0 0 0 0 0 0 0 0 0 0 0 0 0 0 0 0 0 0 0 0 0 0 0 0 0 0 0 0 0 0
0 0 0 0 0 0 0 0 0 0 0 0 0 0 0 0 0 0 0 0 0 0 0 0 0 0 0 0 0 0 0 0 0 0 0 0 0 0 0 0 0 0 0 0
0 0 0 0 0 0 0 0 0 0 0 0 0 0 0 0 0 0 0 0 0 0 0 0 0 0 0 0 0 0 0 0 0 0 0 0 0 0 0 0 0 0 0 0
0 0 0 0 0 0 0 0 0 0 0 0 0 0 0 0 0 0 0 0 0 0 0 0 0 0 0 0 0 0 0 0 0 0 0 0 0 0 0 0 0 0 0 0
0 0 0 0 0 0 0 0 0 0 0 0 0 0 0 0 0 0 0 0 0 0 0 0 0 0 0 0 0 0 0 0 0 0 0 0 0 0 0 0 0 0 0 0
0 0 0 0 -0 -0 0 0 0 0 0 0 0 0 0 0 0 0 0 0 0 0 0 0 0 0 0 0 0 0 0 0 0 0 0 0 0 0 0 0 0 0 -0 -0
0 0 0 0 0 0 0 0 0 0 0 0 0 0 0 0 0 0 0 0 0 0 0 0 0 0 0 0 0 0 0 0 0 0 0 0 0 0 0 0 0 0 -0 0
0 0 0 0 0 0 0 0 0 0 0 0 0 0 0 0 0 0 0 0 0 0 0 0 0 0 0 0 0 0 0 0 0 0 0 0 0 0 0 0 0 0 0 0
0 0 0 0 0 0 0 0 0 0 0 0 0 0 0 0 0 0 0 0 0 0 0 0 0 0 0 0 0 0 0 0 0 0 0 0 0 0 0 0 0 0 0 0
0 0 0 0 0 0 0 0 0 0 0 0 0 0 0 0 0 0 0 0 0 0 0 0 0 0 0 0 0 0 0 0 0 0 0 0 0 0 0 0 0 0 0 0
0 0 0 0 0 0 0 0 0 0 0 0 0 0 0 0 0 0 0 0 0 0 0 0 0 0 0 0 0 0 0 0 0 0 0 0 0 0 0 0 0 0 0 0
0 0 0 0 0 0 0 0 0 0 0 0 0 0 0 0 0 0 0 0 0 0 0 0 0 0 0 0 0 0 0 0 0 0 0 0 0 0 0 0 0 0 0 -0
0 0 0 0 0 0 0 0 0 0 0 0 0 0 0 0 0 0 0 0 -0 -0 -0 0 0 0 0 0 0 0 0 0 0 0 0 0 0 0 0 0 0 0 0 0
0 0 0 0 0 0 0 0 0 0 0 0 0 0 0 0 -0 -0 -0 -0 -0 0 0 0 0 0 0 0 0 0 0 0 0 0 0 0 0 0 0 0 0 0 0 0
0 0 0 0 0 0 0 0 0 0 0 0 0 0 0 0 0 -0 -0 -0 -0 -0 0 0 0 0 0 0 0 0 0 0 0 0 0 0 0 0 0 0 0 0 0 0
0 0 0 0 0 0 0 0 0 0 0 0 0 0 0 0 0 -0 -0 -0 0 0 -0 0 0 0 0 0 0 0 0 0 0 0 0 0 0 0 0 0 0 0 0 0
0 0 0 0 0 0 0 0 0 0 0 0 0 0 0 0 -0 -0 -0 0 0 0 0 0 0 0 0 0 0 0 0 0 -0 -0 -0 0 0 0 0 0 0 0 0 0
0 0 0 0 0 0 0 0 0 0 0 0 0 0 0 -0 -0 -0 -0 0 0 0 0 0 0 -0 0 0 0 0 0 0 0 -0 0 0 0 0 0 0 0 0 0 0
0 0 0 0 0 0 0 0 0 0 0 0 0 0 -0 -0 -0 -0 0 -0 0 0 0 0 -0 0 0 0 0 0 0 0 0 0 0 0 0 0 0 0 0 0 0 0
0 0 0 0 0 0 0 0 0 0 0 0 -0 -0 -0 -0 -0 0 -0 0 0 -0 -0 -0 -0 0 0 0 0 0 0 0 0 0 0 0 0 0 0 0 0 0 0 0
Wind_Speed_500mb
21 6 12 23 23 26 23 25 25 20 16 9 10 15 19 26 27 22 38 46 52 56 49 35 33 49 53 40 35 37 32 31 32 33 50 54 55 50 61 74 77 78 76 76
11 14 21 24 26 25 29 29 27 14 18 15 16 16 16 16 12 27 31 48 61 61 58 51 46 39 44 48 44 44 40 37 36 24 29 43 48 55 60 65 65 76 80 78
16 19 29 35 27 23 16 13 14 10 20 19 16 18 16 9 16 41 55 65 46 65 61 62 60 55 49 49 29 20 13 9 13 24 29 33 49 58 51 60 70 76 76 76
18 26 30 27 14 13 13 20 25 20 12 18 7 25 14 15 20 28 49 66 68 61 46 38 32 31 46 39 28 20 13 4 9 22 22 35 44 59 64 59 58 60 72 73
14 12 19 24 21 13 12 14 17 17 15 5 13 9 11 13 24 29 22 69 81 74 65 41 43 43 31 20 10 8 12 10 10 10 19 27 35 47 62 68 70 72 60 56
16 30 10 15 28 17 10 10 16 12 4 17 12 15 16 26 26 16 12 16 59 41 50 49 39 30 23 18 11 8 10 13 16 14 17 24 32 41 49 66 74 72 74 69
14 18 16 16 15 17 10 8 7 8 8 15 18 22 16 10 14 7 14 41 57 56 47 40 36 26 14 7 3 6 5 13 18 19 26 25 25 38 48 58 64 69 81 79
6 6 8 11 12 11 13 1 7 10 7 9 20 9 9 12 27 37 27 51 41 43 42 33 22 12 6 4 6 9 15 21 35 38 39 39 32 31 41 49 56 60 65 71
2 7 23 17 20 8 11 9 5 6 10 5 9 18 21 12 18 24 43 44 40 46 32 23 15 8 3 6 15 18 24 31 36 36 41 43 45 50 52 51 49 56 71 72
10 7 8 11 22 15 7 12 8 6 3 11 11 13 4 16 16 23 26 34 37 26 22 16 16 17 7 3 4 11 19 26 34 32 30 34 35 50 57 66 62 55 57 61
4 3 8 13 6 12 9 8 6 8 10 9 4 9 10 4 17 21 24 43 30 22 20 18 15 19 22 25 32 39 37 28 28 28 24 25 33 41 43 56 62 66 60 58
10 6 5 13 26 29 19 13 8 5 6 9 6 20 19 12 15 17 27 40 32 28 27 30 37 33 34 35 35 34 36 41 25 26 31 35 38 39 39 46 57 66 68 65
8 5 6 15 11 11 10 3 7 6 3 8 9 8 16 6 6 16 30 36 29 21 32 40 32 28 33 33 28 27 27 35 48 48 44 42 49 54 56 61 58 65 73 70
12 2 10 10 13 17 22 21 21 14 7 8 19 22 32 30 14 26 36 40 19 21 32 35 26 26 39 40 46 48 51 48 47 57 61 63 58 58 61 70 75 70 72 71
12 7 11 16 25 29 29 32 32 31 25 21 35 30 33 28 10 10 18 19 16 19 28 34 36 38 32 24 22 26 37 43 42 40 44 50 58 67 72 75 73 69 70 74
6 5 8 19 27 28 36 33 31 35 37 39 35 28 18 18 30 35 26 21 21 26 33 38 41 48 48 52 54 54 53 57 59 63 68 68 63 52 51 56 55 58 57 55
11 6 1 9 15 27 22 25 25 13 23 3 8 7 20 17 15 15 27 31 37 40 44 49 57 66 73 71 66 67 68 65 67 71 74 67 65 66 71 75 76 79 78 67
12 10 3 8 14 8 11 20 5 12 25 25 8 10 12 8 29 32 22 36 39 42 44 49 56 66 69 69 74 80 84 78 75 83 86 82 80 85 89 88 83 87 90 98
18 11 3 5 6 21 22 10 9 5 5 3 15 15 20 33 31 17 46 58 57 59 58 63 65 63 61 62 64 65 72 78 80 86 84 84 75 79 80 82 81 81 83 87
21 16 12 5 5 7 3 16 24 7 4 10 13 12 18 38 13 14 55 59 54 53 58 65 76 83 67 55 60 67 78 94 107 113 91 78 78 82 79 74 83 80 78 83
4 6 16 12 7 12 12 17 12 1 2 18 19 26 35 8 14 53 58 58 61 68 74 71 69 58 66 75 87 104 111 105 93 73 69 79 81 65 70 78 80 80 84 84
6 4 8 8 9 12 11 12 1 6 16 23 28 39 30 40 46 50 58 65 66 66 68 60 71 76 80 93 88 95 89 90 82 89 79 71 67 75 75 72 78 76 73 71
3 8 4 6 7 14 21 4 13 13 25 25 38 29 38 45 47 56 63 65 67 62 70 69 73 90 104 96 91 85 94 86 82 76 80 76 72 67 68 69 73 76 72 66
11 13 6 10 9 16 21 15 14 20 29 31 32 37 39 46 55 61 61 61 66 68 69 78 83 89 98 90 85 85 88 79 75 76 75 76 76 77 80 76 66 69 70 65
11 4 9 21 8 13 13 13 18 36 36 32 30 32 43 49 53 54 58 78 64 74 80 81 83 98 94 96 91 80 70 64 66 67 68 70 68 67 66 68 71 68 71 69
19 6 5 7 14 24 37 17 25 29 28 29 35 44 44 42 53 58 70 55 77 90 90 83 95 89 93 91 83 73 65 57 58 62 63 65 64 66 68 69 72 69 73 75
Wind_Direction_500mb
207 175 228 225 227 241 265 272 277 275 280 15 261 194 220 228 246 230 207 210 220 238 241 243 259 235 235 245 240 236 242 248 270 226 231 239 242 248 242 240 234 239 245 246
265 223 235 254 255 240 245 260 273 290 326 345 313 272 245 230 236 262 256 236 231 227 228 227 233 218 222 228 238 249 254 258 260 273 247 240 252 256 259 253 250 244 245 244
198 233 226 235 245 263 286 284 292 287 314 312 322 305 312 277 277 274 263 265 255 225 224 223 227 232 224 220 203 184 212 252 281 292 286 267 249 250 258 258 257 254 251 247
231 242 252 265 248 224 250 281 295 284 258 275 301 286 299 283 257 256 251 245 246 244 230 222 210 156 144 137 148 156 152 146 310 299 279 283 280 267 258 264 268 269 264 257
262 314 343 324 280 233 248 259 260 268 277 305 303 313 277 267 279 274 246 234 235 234 228 170 153 144 141 139 150 174 212 240 229 244 278 284 278 267 273 264 264 266 275 274
295 319 307 305 320 323 16 0 346 341 327 268 239 250 271 260 260 310 343 332 224 185 149 131 123 125 131 146 161 200 240 240 257 277 288 300 305 301 289 272 270 267 265 271
314 278 285 298 313 327 339 11 316 314 295 251 239 265 228 269 326 325 29 77 103 111 117 115 113 109 113 111 317 270 250 252 280 288 283 286 305 299 294 293 289 282 276 272
285 301 213 342 45 336 331 11 185 256 258 299 330 260 240 347 16 21 37 115 109 104 109 110 107 95 96 124 257 276 276 270 273 279 275 275 288 299 295 296 301 297 288 284
324 281 343 13 317 357 341 353 357 9 22 294 228 281 276 18 2 21 44 66 86 99 97 92 85 89 73 326 312 294 288 286 280 274 272 278 279 280 281 283 284 290 298 294
12 342 335 346 345 334 333 316 10 44 316 267 239 251 216 43 3 7 7 71 62 59 60 59 37 17 348 288 317 327 321 295 265 266 272 278 277 276 279 279 284 289 284 292
9 147 306 340 255 259 287 269 207 182 181 219 248 250 124 112 42 21 24 14 358 31 21 355 325 312 317 304 297 302 297 298 274 265 275 284 287 283 286 286 292 293 290 287
32 132 278 256 284 286 283 305 44 189 254 240 236 255 310 94 56 25 347 329 317 307 327 327 316 295 294 298 299 290 280 277 280 273 272 274 282 294 298 289 294 297 296 291
339 337 342 325 316 53 57 28 143 90 245 238 269 278 360 336 137 286 284 288 280 291 300 307 302 302 296 288 296 297 289 278 282 282 280 274 270 273 279 292 296 293 295 295
92 234 204 213 272 291 294 289 287 164 218 267 241 271 279 286 212 237 251 266 254 304 304 301 311 312 313 313 302 295 286 284 281 280 279 275 274 274 274 274 284 290 290 295
132 224 259 270 283 287 284 275 269 264 238 215 267 254 257 271 284 177 71 33 347 291 285 315 320 326 335 353 326 301 297 292 285 285 280 283 288 283 279 277 280 285 287 289
131 229 302 290 282 282 279 287 286 271 271 266 265 269 41 58 45 38 17 351 325 27 356 343 333 325 321 315 310 306 310 307 296 288 285 281 279 280 276 270 267 268 276 286
131 157 347 260 326 318 294 252 256 279 337 353 39 11 33 13 33 11 351 18 17 356 341 331 321 316 313 311 307 303 303 299 296 292 287 284 279 277 276 273 272 273 273 276
177 169 179 277 300 246 243 333 64 91 56 349 19 95 102 318 340 343 24 13 351 339 326 318 314 312 308 303 300 299 297 299 298 295 291 288 283 279 276 274 273 277 277 277
179 148 182 239 232 289 295 20 12 17 108 302 0 348 357 348 334 302 355 344 336 330 323 318 315 309 303 300 293 288 287 287 288 292 292 290 280 276 274 271 274 278 280 278
159 152 169 204 226 263 104 24 24 7 233 358 0 338 345 339 339 316 334 333 327 322 320 317 313 309 308 295 288 288 291 292 292 291 277 275 277 273 268 266 277 276 279 274
132 192 213 221 239 274 25 345 73 317 278 298 332 349 318 304 308 324 327 323 323 320 318 318 312 302 303 299 300 301 302 298 299 290 277 278 272 266 261 266 269 273 276 276
187 225 201 224 218 248 12 351 348 250 315 324 341 324 335 335 331 326 322 320 319 317 318 312 308 310 305 305 307 302 296 295 292 288 286 279 273 272 274 264 264 270 270 260
230 197 274 213 226 225 282 238 312 289 297 336 319 338 340 333 331 325 318 317 318 318 315 313 313 308 309 307 311 296 302 301 297 290 282 281 276 274 271 265 265 270 264 252
344 53 268 345 305 12 30 81 14 341 323 319 326 338 336 333 326 319 318 320 320 319 317 316 314 311 308 309 309 305 306 303 296 289 283 277 278 275 270 269 265 258 252 248
221 267 280 290 314 342 56 358 347 315 311 314 337 337 333 325 319 320 321 323 321 317 321 319 313 313 310 313 314 314 310 305 298 293 288 284 279 273 266 261 261 256 254 246
250 218 199 240 341 292 286 312 322 298 314 344 340 336 330 329 324 324 325 317 320 325 322 317 317 315 314 320 321 322 324 314 306 298 291 285 280 274 268 264 264 253 249 244
Wind_Speed_850mb
21 6 12 23 23 26 23 25 25 20 16 9 10 15 19 26 27 22 38 46 52 56 49 35 33 49 53 40 35 37 32 31 32 33 50 54 55 50 61 74 77 78 76 76
11 14 21 24 26 25 29 29 27 14 18 15 16 16 16 16 12 27 31 48 61 61 58 51 46 39 44 48 44 44 40 37 36 24 29 43 48 55 60 65 65 76 80 78
16 19 29 35 27 23 16 13 14 10 20 19 16 18 16 9 16 41 55 65 46 65 61 62 60 55 49 49 29 20 13 9 13 24 29 33 49 58 51 60 70 76 76 76
18 26 30 27 14 13 13 20 25 20 12 18 7 25 14 15 20 28 49 66 68 61 46 38 32 31 46 39 28 20 13 4 9 22 22 35 44 59 64 59 58 60 72 73
14 12 19 24 21 13 12 14 17 17 15 5 13 9 11 13 24 29 22 69 81 74 65 41 43 43 31 20 10 8 12 10 10 10 19 27 35 47 62 68 70 72 60 56
16 30 10 15 28 17 10 10 16 12 4 17 12 15 16 26 26 16 12 16 59 41 50 49 39 30 23 18 11 8 10 13 16 14 17 24 32 41 49 66 74 72 74 69
14 18 16 16 15 17 10 8 7 8 8 15 18 22 16 10 14 7 14 41 57 56 47 40 36 26 14 7 3 6 5 13 18 19 26 25 25 38 48 58 64 69 81 79
6 6 8 11 12 11 13 1 7 10 7 9 20 9 9 12 27 37 27 51 41 43 42 33 22 12 6 4 6 9 15 21 35 38 39 39 32 31 41 49 56 60 65 71
2 7 23 17 20 8 11 9 5 6 10 5 9 18 21 12 18 24 43 44 40 46 32 23 15 8 3 6 15 18 24 31 36 36 41 43 45 50 52 51 49 56 71 72
10 7 8 11 22 15 7 12 8 6 3 11 11 13 4 16 16 23 26 34 37 26 22 16 16 17 7 3 4 11 19 26 34 32 30 34 35 50 57 66 62 55 57 61
4 3 8 13 6 12 9 8 6 8 10 9 4 9 10 4 17 21 24 43 30 22 20 18 15 19 22 25 32 39 37 28 28 28 24 25 33 41 43 56 62 66 60 58
10 6 5 13 26 29 19 13 8 5 6 9 6 20 19 12 15 17 27 40 32 28 27 30 37 33 34 35 35 34 36 41 25 26 31 35 38 39 39 46 57 66 68 65
8 5 6 15 11 11 10 3 7 6 3 8 9 8 16 6 6 16 30 36 29 21 32 40 32 28 33 33 28 27 27 35 48 48 44 42 49 54 56 61 58 65 73 70
12 2 10 10 13 17 22 21 21 14 7 8 19 22 32 30 14 26 36 40 19 21 32 35 26 26 39 40 46 48 51 48 47 57 61 63 58 58 61 70 75 70 72 71
12 7 11 16 25 29 29 32 32 31 25 21 35 30 33 28 10 10 18 19 16 19 28 34 36 38 32 24 22 26 37 43 42 40 44 50 58 67 72 75 73 69 70 74
6 5 8 19 27 28 36 33 31 35 37 39 35 28 18 18 30 35 26 21 21 26 33 38 41 48 48 52 54 54 53 57 59 63 68 68 63 52 51 56 55 58 57 55
11 6 1 9 15 27 22 25 25 13 23 3 8 7 20 17 15 15 27 31 37 40 44 49 57 66 73 71 66 67 68 65 67 71 74 67 65 66 71 75 76 79 78 67
12 10 3 8 14 8 11 20 5 12 25 25 8 10 12 8 29 32 22 36 39 42 44 49 56 66 69 69 74 80 84 78 75 83 86 82 80 85 89 88 83 87 90 98
18 11 3 5 6 21 22 10 9 5 5 3 15 15 20 33 31 17 46 58 57 59 58 63 65 63 61 62 64 65 72 78 80 86 84 84 75 79 80 82 81 81 83 87
21 16 12 5 5 7 3 16 24 7 4 10 13 12 18 38 13 14 55 59 54 53 58 65 76 83 67 55 60 67 78 94 107 113 91 78 78 82 79 74 83 80 78 83
4 6 16 12 7 12 12 17 12 1 2 18 19 26 35 8 14 53 58 58 61 68 74 71 69 58 66 75 87 104 111 105 93 73 69 79 81 65 70 78 80 80 84 84
6 4 8 8 9 12 11 12 1 6 16 23 28 39 30 40 46 50 58 65 66 66 68 60 71 76 80 93 88 95 89 90 82 89 79 71 67 75 75 72 78 76 73 71
3 8 4 6 7 14 21 4 13 13 25 25 38 29 38 45 47 56 63 65 67 62 70 69 73 90 104 96 91 85 94 86 82 76 80 76 72 67 68 69 73 76 72 66
11 13 6 10 9 16 21 15 14 20 29 31 32 37 39 46 55 61 61 61 66 68 69 78 83 89 98 90 85 85 88 79 75 76 75 76 76 77 80 76 66 69 70 65
11 4 9 21 8 13 13 13 18 36 36 32 30 32 43 49 53 54 58 78 64 74 80 81 83 98 94 96 91 80 70 64 66 67 68 70 68 67 66 68 71 68 71 69
19 6 5 7 14 24 37 17 25 29 28 29 35 44 44 42 53 58 70 55 77 90 90 83 95 89 93 91 83 73 65 57 58 62 63 65 64 66 68 69 72 69 73 75
Wind_Direction_850mb
207 175 228 225 227 241 265 272 277 275 280 15 261 194 220 228 246 230 207 210 220 238 241 243 259 235 235 245 240 236 242 248 270 226 231 239 242 248 242 240 234 239 245 246
265 223 235 254 255 240 245 260 273 290 326 345 313 272 245 230 236 262 256 236 231 227 228 227 233 218 222 228 238 249 254 258 260 273 247 240 252 256 259 253 250 244 245 244
198 233 226 235 245 263 286 284 292 287 314 312 322 305 312 277 277 274 263 265 255 225 224 223 227 232 224 220 203 184 212 252 281 292 286 267 249 250 258 258 257 254 251 247
231 242 252 265 248 224 250 281 295 284 258 275 301 286 299 283 257 256 251 245 246 244 230 222 210 156 144 137 148 156 152 146 310 299 279 283 280 267 258 264 268 269 264 257
262 314 343 324 280 233 248 259 260 268 277 305 303 313 277 267 279 274 246 234 235 234 228 170 153 144 141 139 150 174 212 240 229 244 278 284 278 267 273 264 264 266 275 274
295 319 307 305 320 323 16 0 346 341 327 268 239 250 271 260 260 310 343 332 224 185 149 131 123 125 131 146 161 200 240 240 257 277 288 300 305 301 289 272 270 267 265 271
314 278 285 298 313 327 339 11 316 314 295 251 239 265 228 269 326 325 29 77 103 111 117 115 113 109 113 111 317 270 250 252 280 288 283 286 305 299 294 293 289 282 276 272
285 301 213 342 45 336 331 11 185 256 258 299 330 260 240 347 16 21 37 115 109 104 109 110 107 95 96 124 257 276 276 270 273 279 275 275 288 299 295 296 301 297 288 284
324 281 343 13 317 357 341 353 357 9 22 294 228 281 276 18 2 21 44 66 86 99 97 92 85 89 73 326 312 294 288 286 280 274 272 278 279 280 281 283 284 290 298 294
12 342 335 346 345 334 333 316 10 44 316 267 239 251 216 43 3 7 7 71 62 59 60 59 37 17 348 288 317 327 321 295 265 266 272 278 277 276 279 279 284 289 284 292
9 147 306 340 255 259 287 269 207 182 181 219 248 250 124 112 42 21 24 14 358 31 21 355 325 312 317 304 297 302 297 298 274 265 275 284 287 283 286 286 292 293 290 287
32 132 278 256 284 286 283 305 44 189 254 240 236 255 310 94 56 25 347 329 317 307 327 327 316 295 294 298 299 290 280 277 280 273 272 274 282 294 298 289 294 297 296 291
339 337 342 325 316 53 57 28 143 90 245 238 269 278 360 336 137 286 284 288 280 291 300 307 302 302 296 288 296 297 289 278 282 282 280 274 270 273 279 292 296 293 295 295
92 234 204 213 272 291 294 289 287 164 218 267 241 271 279 286 212 237 251 266 254 304 304 301 311 312 313 313 302 295 286 284 281 280 279 275 274 274 274 274 284 290 290 295
132 224 259 270 283 287 284 275 269 264 238 215 267 254 257 271 284 177 71 33 347 291 285 315 320 326 335 353 326 301 297 292 285 285 280 283 288 283 279 277 280 285 287 289
131 229 302 290 282 282 279 287 286 271 271 266 265 269 41 58 45 38 17 351 325 27 356 343 333 325 321 315 310 306 310 307 296 288 285 281 279 280 276 270 267 268 276 286
131 157 347 260 326 318 294 252 256 279 337 353 39 11 33 13 33 11 351 18 17 356 341 331 321 316 313 311 307 303 303 299 296 292 287 284 279 277 276 273 272 273 273 276
177 169 179 277 300 246 243 333 64 91 56 349 19 95 102 318 340 343 24 13 351 339 326 318 314 312 308 303 300 299 297 299 298 295 291 288 283 279 276 274 273 277 277 277
179 148 182 239 232 289 295 20 12 17 108 302 0 348 357 348 334 302 355 344 336 330 323 318 315 309 303 300 293 288 287 287 288 292 292 290 280 276 274 271 274 278 280 278
159 152 169 204 226 263 104 24 24 7 233 358 0 338 345 339 339 316 334 333 327 322 320 317 313 309 308 295 288 288 291 292 292 291 277 275 277 273 268 266 277 276 279 274
132 192 213 221 239 274 25 345 73 317 278 298 332 349 318 304 308 324 327 323 323 320 318 318 312 302 303 299 300 301 302 298 299 290 277 278 272 266 261 266 269 273 276 276
187 225 201 224 218 248 12 351 348 250 315 324 341 324 335 335 331 326 322 320 319 317 318 312 308 310 305 305 307 302 296 295 292 288 286 279 273 272 274 264 264 270 270 260
230 197 274 213 226 225 282 238 312 289 297 336 319 338 340 333 331 325 318 317 318 318 315 313 313 308 309 307 311 296 302 301 297 290 282 281 276 274 271 265 265 270 264 252
344 53 268 345 305 12 30 81 14 341 323 319 326 338 336 333 326 319 318 320 320 319 317 316 314 311 308 309 309 305 306 303 296 289 283 277 278 275 270 269 265 258 252 248
221 267 280 290 314 342 56 358 347 315 311 314 337 337 333 325 319 320 321 323 321 317 321 319 313 313 310 313 314 314 310 305 298 293 288 284 279 273 266 261 261 256 254 246
250 218 199 240 341 292 286 312 322 298 314 344 340 336 330 329 324 324 325 317 320 325 322 317 317 315 314 320 321 322 324 314 306 298 291 285 280 274 268 264 264 253 249 244